Time,TemperatureF,DewpointF,PressureIn,WindDirection,WindDirectionDegrees,WindSpeedMPH,WindSpeedGustMPH,Humidity,HourlyPrecipIn,Conditions,Clouds,dailyrainin,SoftwareType,DateUTC
2013-10-01 00:01:00,60.3,45.9,30.02,WNW,287,2.0,11.0,59,0.00,,,0.00,meteohub,2013-10-01 07:01:00,
2013-10-01 00:06:00,60.3,45.9,30.02,WNW,287,4.0,11.0,59,0.00,,,0.00,meteohub,2013-10-01 07:06:00,
2013-10-01 00:11:00,60.1,45.7,30.02,West,274,7.0,11.0,59,0.00,,,0.00,meteohub,2013-10-01 07:11:00,
2013-10-01 00:16:00,60.1,45.7,30.02,WNW,290,4.0,7.0,59,0.00,,,0.00,meteohub,2013-10-01 07:16:00,
2013-10-01 00:22:00,60.1,45.7,30.02,WNW,289,0.0,7.0,59,0.00,,,0.00,meteohub,2013-10-01 07:22:00,
2013-10-01 00:27:00,59.5,45.7,30.02,WNW,289,0.0,7.0,60,0.00,,,0.00,meteohub,2013-10-01 07:27:00,
2013-10-01 00:32:00,59.4,45.9,30.02,WNW,289,0.0,6.0,61,0.00,,,0.00,meteohub,2013-10-01 07:32:00,
2013-10-01 00:38:00,59.2,45.7,30.02,WNW,289,3.0,3.0,61,0.00,,,0.00,meteohub,2013-10-01 07:38:00,
2013-10-01 00:43:00,59.4,45.5,30.02,WNW,287,11.0,11.0,60,0.00,,,0.00,meteohub,2013-10-01 07:43:00,
2013-10-01 00:48:00,59.5,45.1,30.02,West,281,6.0,13.0,59,0.00,,,0.00,meteohub,2013-10-01 07:48:00,
2013-10-01 00:53:00,59.5,45.7,30.02,WNW,282,7.0,14.0,60,0.00,,,0.00,meteohub,2013-10-01 07:53:00,
2013-10-01 00:59:00,59.4,45.9,30.02,WNW,285,5.0,14.0,61,0.00,,,0.00,meteohub,2013-10-01 07:59:00,
2013-10-01 01:04:00,59.2,45.7,30.02,WNW,285,3.0,14.0,61,0.00,,,0.00,meteohub,2013-10-01 08:04:00,
2013-10-01 01:09:00,59.2,46.2,30.02,WNW,285,4.0,11.0,62,0.00,,,0.00,meteohub,2013-10-01 08:09:00,
2013-10-01 01:14:00,59.0,46.0,30.02,WNW,287,3.0,7.0,62,0.00,,,0.00,meteohub,2013-10-01 08:14:00,
2013-10-01 01:20:00,58.8,45.9,30.02,WNW,287,0.0,6.0,62,0.00,,,0.00,meteohub,2013-10-01 08:20:00,
2013-10-01 01:25:00,58.3,45.7,30.02,WNW,287,3.0,6.0,63,0.00,,,0.00,meteohub,2013-10-01 08:25:00,
2013-10-01 01:30:00,57.6,45.9,30.02,WNW,287,0.0,4.0,65,0.00,,,0.00,meteohub,2013-10-01 08:30:00,
2013-10-01 01:35:00,57.2,45.9,30.02,WNW,287,1.0,4.0,66,0.00,,,0.00,meteohub,2013-10-01 08:35:00,
2013-10-01 01:41:00,57.2,45.9,30.02,WNW,287,2.0,3.0,66,0.00,,,0.00,meteohub,2013-10-01 08:41:00,
2013-10-01 01:46:00,56.8,46.0,30.02,WNW,295,0.0,4.0,67,0.00,,,0.00,meteohub,2013-10-01 08:46:00,
2013-10-01 01:51:00,56.5,45.7,30.02,WNW,295,0.0,4.0,67,0.00,,,0.00,meteohub,2013-10-01 08:51:00,
2013-10-01 01:56:00,56.7,46.6,30.03,WNW,289,2.0,4.0,69,0.00,,,0.00,meteohub,2013-10-01 08:56:00,
2013-10-01 02:01:00,57.4,46.9,30.03,NW,304,6.0,7.0,68,0.00,,,0.00,meteohub,2013-10-01 09:01:00,
2013-10-01 02:06:00,57.9,46.6,30.02,WNW,293,5.0,7.0,66,0.00,,,0.00,meteohub,2013-10-01 09:06:00,
2013-10-01 02:11:00,58.1,46.8,30.03,WNW,294,0.0,7.0,66,0.00,,,0.00,meteohub,2013-10-01 09:11:00,
2013-10-01 02:17:00,58.1,47.1,30.03,WNW,291,6.0,7.0,67,0.00,,,0.00,meteohub,2013-10-01 09:17:00,
2013-10-01 02:22:00,58.1,47.1,30.02,WNW,287,5.0,9.0,67,0.00,,,0.00,meteohub,2013-10-01 09:22:00,
2013-10-01 02:27:00,57.9,46.9,30.02,WNW,291,3.0,9.0,67,0.00,,,0.00,meteohub,2013-10-01 09:27:00,
2013-10-01 02:32:00,57.9,46.9,30.02,WNW,293,2.0,9.0,67,0.00,,,0.00,meteohub,2013-10-01 09:32:00,
2013-10-01 02:38:00,57.9,46.9,30.02,WNW,285,3.0,9.0,67,0.00,,,0.00,meteohub,2013-10-01 09:38:00,
2013-10-01 02:43:00,57.9,46.9,30.02,WNW,286,0.0,8.0,67,0.00,,,0.00,meteohub,2013-10-01 09:43:00,
2013-10-01 02:48:00,57.4,46.9,30.02,WNW,285,0.0,8.0,68,0.00,,,0.00,meteohub,2013-10-01 09:48:00,
2013-10-01 02:54:00,56.7,46.6,30.02,WNW,285,1.0,8.0,69,0.00,,,0.00,meteohub,2013-10-01 09:54:00,
2013-10-01 02:59:00,56.1,46.8,30.02,WNW,286,0.0,5.0,71,0.00,,,0.00,meteohub,2013-10-01 09:59:00,
2013-10-01 03:04:00,55.9,46.8,30.02,WNW,286,0.0,2.0,71,0.00,,,0.00,meteohub,2013-10-01 10:04:00,
2013-10-01 03:09:00,55.8,46.9,30.02,WNW,285,0.0,2.0,72,0.00,,,0.00,meteohub,2013-10-01 10:09:00,
2013-10-01 03:14:00,55.9,47.5,30.02,WNW,286,2.0,2.0,73,0.00,,,0.00,meteohub,2013-10-01 10:14:00,
2013-10-01 03:21:00,56.5,48.0,30.02,WNW,286,2.0,3.0,73,0.00,,,0.00,meteohub,2013-10-01 10:21:00,
2013-10-01 03:26:00,56.7,48.0,30.02,WNW,285,0.0,3.0,73,0.00,,,0.00,meteohub,2013-10-01 10:26:00,
2013-10-01 03:32:00,56.7,48.0,30.02,WNW,286,0.0,2.0,73,0.00,,,0.00,meteohub,2013-10-01 10:32:00,
2013-10-01 03:37:00,56.7,48.4,30.02,WNW,285,0.0,2.0,74,0.00,,,0.00,meteohub,2013-10-01 10:37:00,
2013-10-01 03:42:00,56.8,48.6,30.02,WNW,285,0.0,2.0,74,0.00,,,0.00,meteohub,2013-10-01 10:42:00,
2013-10-01 03:47:00,56.8,48.6,30.02,WNW,285,0.0,2.0,74,0.00,,,0.00,meteohub,2013-10-01 10:47:00,
2013-10-01 03:52:00,56.7,48.4,30.02,WNW,285,0.0,2.0,74,0.00,,,0.00,meteohub,2013-10-01 10:52:00,
2013-10-01 03:58:00,56.7,48.0,30.02,WNW,286,0.0,2.0,73,0.00,,,0.00,meteohub,2013-10-01 10:58:00,
2013-10-01 04:03:00,55.6,47.5,30.02,WNW,286,0.0,2.0,74,0.00,,,0.00,meteohub,2013-10-01 11:03:00,
2013-10-01 04:08:00,55.0,47.3,30.02,WNW,286,0.0,2.0,75,0.00,,,0.00,meteohub,2013-10-01 11:08:00,
2013-10-01 04:14:00,54.3,46.9,30.02,WNW,286,2.0,2.0,76,0.00,,,0.00,meteohub,2013-10-01 11:14:00,
2013-10-01 04:19:00,53.8,46.8,30.02,WNW,286,0.0,1.0,77,0.00,,,0.00,meteohub,2013-10-01 11:19:00,
2013-10-01 04:24:00,53.8,46.8,30.02,WNW,286,2.0,4.0,77,0.00,,,0.00,meteohub,2013-10-01 11:24:00,
2013-10-01 04:29:00,53.8,47.1,30.02,WNW,286,0.0,4.0,78,0.00,,,0.00,meteohub,2013-10-01 11:29:00,
2013-10-01 04:35:00,53.8,47.5,30.02,WNW,285,3.0,3.0,79,0.00,,,0.00,meteohub,2013-10-01 11:35:00,
2013-10-01 04:40:00,54.0,48.0,30.02,WNW,284,2.0,5.0,80,0.00,,,0.00,meteohub,2013-10-01 11:40:00,
2013-10-01 04:45:00,54.0,48.0,30.02,WNW,284,1.0,5.0,80,0.00,,,0.00,meteohub,2013-10-01 11:45:00,
2013-10-01 04:50:00,53.8,48.0,30.02,WNW,284,0.0,4.0,81,0.00,,,0.00,meteohub,2013-10-01 11:50:00,
2013-10-01 04:56:00,53.8,48.4,30.02,WNW,285,0.0,3.0,82,0.00,,,0.00,meteohub,2013-10-01 11:56:00,
2013-10-01 05:01:00,53.4,48.4,30.02,WNW,283,0.0,2.0,83,0.00,,,0.00,meteohub,2013-10-01 12:01:00,
2013-10-01 05:06:00,53.4,48.4,30.02,WNW,283,0.0,2.0,83,0.00,,,0.00,meteohub,2013-10-01 12:06:00,
2013-10-01 05:12:00,53.6,48.9,30.02,WNW,283,0.0,2.0,84,0.00,,,0.00,meteohub,2013-10-01 12:12:00,
2013-10-01 05:17:00,53.6,48.9,30.02,WNW,283,0.0,2.0,84,0.00,,,0.00,meteohub,2013-10-01 12:17:00,
2013-10-01 05:22:00,53.6,48.9,30.02,WNW,283,1.0,2.0,84,0.00,,,0.00,meteohub,2013-10-01 12:22:00,
2013-10-01 05:27:00,53.8,49.1,30.02,SW,214,3.0,3.0,84,0.00,,,0.00,meteohub,2013-10-01 12:27:00,
2013-10-01 05:32:00,54.0,49.3,30.02,SSW,195,3.0,5.0,84,0.00,,,0.00,meteohub,2013-10-01 12:32:00,
2013-10-01 05:38:00,54.1,49.1,30.02,South,182,4.0,5.0,83,0.00,,,0.00,meteohub,2013-10-01 12:38:00,
2013-10-01 05:43:00,54.3,49.6,30.02,South,181,2.0,6.0,84,0.00,,,0.00,meteohub,2013-10-01 12:43:00,
2013-10-01 05:48:00,54.3,49.6,30.02,South,181,0.0,6.0,84,0.00,,,0.00,meteohub,2013-10-01 12:48:00,
2013-10-01 05:53:00,54.3,49.6,30.02,South,181,1.0,6.0,84,0.00,,,0.00,meteohub,2013-10-01 12:53:00,
2013-10-01 05:58:00,54.3,49.8,30.02,South,176,3.0,5.0,85,0.00,,,0.00,meteohub,2013-10-01 12:58:00,
2013-10-01 06:04:00,54.3,49.8,30.02,South,174,1.0,5.0,85,0.00,,,0.00,meteohub,2013-10-01 13:04:00,
2013-10-01 06:09:00,54.1,49.8,30.03,South,175,2.0,5.0,85,0.00,,,0.00,meteohub,2013-10-01 13:09:00,
2013-10-01 06:14:00,54.0,49.6,30.03,South,174,0.0,5.0,85,0.00,,,0.00,meteohub,2013-10-01 13:14:00,
2013-10-01 06:20:00,54.0,49.8,30.03,South,175,1.0,4.0,86,0.00,,,0.00,meteohub,2013-10-01 13:20:00,
2013-10-01 06:25:00,54.0,49.8,30.03,South,175,2.0,3.0,86,0.00,,,0.00,meteohub,2013-10-01 13:25:00,
2013-10-01 06:30:00,54.0,50.2,30.03,South,172,3.0,5.0,87,0.00,,,0.00,meteohub,2013-10-01 13:30:00,
2013-10-01 06:35:00,54.1,50.4,30.03,South,170,1.0,6.0,87,0.00,,,0.00,meteohub,2013-10-01 13:35:00,
2013-10-01 06:41:00,54.1,50.4,30.03,SSE,161,6.0,6.0,87,0.00,,,0.00,meteohub,2013-10-01 13:41:00,
2013-10-01 06:46:00,54.3,50.5,30.03,SSE,160,3.0,7.0,87,0.00,,,0.00,meteohub,2013-10-01 13:46:00,
2013-10-01 06:51:00,54.3,50.2,30.03,SSE,160,1.0,7.0,86,0.00,,,0.00,meteohub,2013-10-01 13:51:00,
2013-10-01 06:57:00,54.1,50.0,30.03,SSE,160,3.0,7.0,86,0.00,,,0.00,meteohub,2013-10-01 13:57:00,
2013-10-01 07:02:00,54.1,50.4,30.03,SSE,160,3.0,5.0,87,0.00,,,0.00,meteohub,2013-10-01 14:02:00,
2013-10-01 07:07:00,54.3,50.5,30.04,SSE,161,1.0,5.0,87,0.00,,,0.00,meteohub,2013-10-01 14:07:00,
2013-10-01 07:13:00,54.3,50.5,30.04,SSE,160,2.0,5.0,87,0.00,,,0.00,meteohub,2013-10-01 14:13:00,
2013-10-01 07:18:00,54.1,50.4,30.04,SSE,148,0.0,4.0,87,0.00,,,0.00,meteohub,2013-10-01 14:18:00,
2013-10-01 07:23:00,54.1,50.4,30.04,SSE,148,0.0,5.0,87,0.00,,,0.00,meteohub,2013-10-01 14:23:00,
2013-10-01 07:28:00,54.1,50.4,30.04,SSE,147,0.0,5.0,87,0.00,,,0.00,meteohub,2013-10-01 14:28:00,
2013-10-01 07:33:00,54.3,50.5,30.04,SSE,149,0.0,2.0,87,0.00,,,0.00,meteohub,2013-10-01 14:33:00,
2013-10-01 07:39:00,54.3,50.5,30.04,SSE,149,0.0,1.0,87,0.00,,,0.00,meteohub,2013-10-01 14:39:00,
2013-10-01 07:44:00,54.7,50.9,30.04,SSE,152,0.0,3.0,87,0.00,,,0.00,meteohub,2013-10-01 14:44:00,
2013-10-01 07:49:00,54.9,51.1,30.04,SSE,162,4.0,4.0,87,0.00,,,0.00,meteohub,2013-10-01 14:49:00,
2013-10-01 07:55:00,55.0,51.3,30.04,SSE,164,0.0,4.0,87,0.00,,,0.00,meteohub,2013-10-01 14:55:00,
2013-10-01 08:00:00,55.4,51.6,30.04,SSE,164,0.0,5.0,87,0.00,,,0.00,meteohub,2013-10-01 15:00:00,
2013-10-01 08:05:00,55.8,52.0,30.04,SSE,165,0.0,3.0,87,0.00,,,0.00,meteohub,2013-10-01 15:05:00,
2013-10-01 08:10:00,56.1,52.3,30.04,SSE,164,0.0,1.0,87,0.00,,,0.00,meteohub,2013-10-01 15:10:00,
2013-10-01 08:15:00,56.7,52.5,30.04,SSE,163,0.0,1.0,86,0.00,,,0.00,meteohub,2013-10-01 15:15:00,
2013-10-01 08:21:00,57.0,52.5,30.05,SSE,165,0.0,1.0,85,0.00,,,0.00,meteohub,2013-10-01 15:21:00,
2013-10-01 08:26:00,57.4,52.5,30.05,SSE,164,3.0,3.0,84,0.00,,,0.00,meteohub,2013-10-01 15:26:00,
2013-10-01 08:32:00,57.2,51.1,30.05,SSW,202,3.0,4.0,80,0.00,,,0.00,meteohub,2013-10-01 15:32:00,
2013-10-01 08:37:00,57.4,50.5,30.05,SW,214,2.0,6.0,78,0.00,,,0.00,meteohub,2013-10-01 15:37:00,
2013-10-01 08:42:00,57.6,50.7,30.05,SW,214,1.0,6.0,78,0.00,,,0.00,meteohub,2013-10-01 15:42:00,
2013-10-01 08:48:00,57.7,50.2,30.05,SSW,212,0.0,6.0,76,0.00,,,0.00,meteohub,2013-10-01 15:48:00,
2013-10-01 08:53:00,57.9,50.0,30.05,SSW,213,1.0,5.0,75,0.00,,,0.00,meteohub,2013-10-01 15:53:00,
2013-10-01 08:58:00,58.1,50.2,30.05,SW,214,0.0,4.0,75,0.00,,,0.00,meteohub,2013-10-01 15:58:00,
2013-10-01 09:03:00,58.5,50.5,30.06,SW,214,1.0,4.0,75,0.00,,,0.00,meteohub,2013-10-01 16:03:00,
2013-10-01 09:08:00,58.5,50.5,30.06,SSW,213,3.0,4.0,75,0.00,,,0.00,meteohub,2013-10-01 16:08:00,
2013-10-01 09:14:00,58.6,50.7,30.06,SW,214,1.0,3.0,75,0.00,,,0.00,meteohub,2013-10-01 16:14:00,
2013-10-01 09:19:00,58.8,50.5,30.06,SW,214,1.0,3.0,74,0.00,,,0.00,meteohub,2013-10-01 16:19:00,
2013-10-01 09:24:00,59.4,51.1,30.06,SSW,213,0.0,4.0,74,0.00,,,0.00,meteohub,2013-10-01 16:24:00,
2013-10-01 09:29:00,60.1,51.8,30.06,SW,214,0.0,4.0,74,0.00,,,0.00,meteohub,2013-10-01 16:29:00,
2013-10-01 09:32:00,60.4,51.8,30.06,SW,214,2.0,3.0,73,0.00,,,0.00,meteohub,2013-10-01 16:32:00,
2013-10-01 09:37:00,60.4,50.5,30.06,West,279,2.0,3.0,70,0.00,,,0.00,meteohub,2013-10-01 16:37:00,
2013-10-01 09:42:00,60.3,50.9,30.06,West,280,0.0,5.0,71,0.00,,,0.00,meteohub,2013-10-01 16:42:00,
2013-10-01 09:47:00,60.4,51.4,30.06,West,278,2.0,5.0,72,0.00,,,0.00,meteohub,2013-10-01 16:47:00,
2013-10-01 09:52:00,60.4,50.5,30.06,West,278,1.0,5.0,70,0.00,,,0.00,meteohub,2013-10-01 16:52:00,
2013-10-01 09:58:00,60.6,50.0,30.06,NW,325,4.0,4.0,68,0.00,,,0.00,meteohub,2013-10-01 16:58:00,
2013-10-01 10:03:00,60.8,50.2,30.06,NNW,328,0.0,7.0,68,0.00,,,0.00,meteohub,2013-10-01 17:03:00,
2013-10-01 10:08:00,61.3,49.8,30.06,NNW,335,5.0,7.0,66,0.00,,,0.00,meteohub,2013-10-01 17:08:00,
2013-10-01 10:14:00,61.3,49.8,30.06,NW,307,1.0,7.0,66,0.00,,,0.00,meteohub,2013-10-01 17:14:00,
2013-10-01 10:19:00,61.5,49.6,30.06,NNW,340,5.0,6.0,65,0.00,,,0.00,meteohub,2013-10-01 17:19:00,
2013-10-01 10:24:00,61.9,49.6,30.06,West,280,0.0,8.0,64,0.00,,,0.00,meteohub,2013-10-01 17:24:00,
2013-10-01 10:29:00,62.1,49.3,30.06,NW,314,2.0,8.0,63,0.00,,,0.00,meteohub,2013-10-01 17:29:00,
2013-10-01 10:35:00,62.2,49.5,30.06,NW,321,1.0,8.0,63,0.00,,,0.00,meteohub,2013-10-01 17:35:00,
2013-10-01 10:40:00,62.8,51.6,30.06,NNE,27,0.0,8.0,67,0.00,,,0.00,meteohub,2013-10-01 17:40:00,
2013-10-01 10:45:00,62.8,51.3,30.06,NE,35,2.0,5.0,66,0.00,,,0.00,meteohub,2013-10-01 17:45:00,
2013-10-01 10:50:00,63.0,51.8,30.06,NE,37,0.0,5.0,67,0.00,,,0.00,meteohub,2013-10-01 17:50:00,
2013-10-01 10:56:00,63.3,51.4,30.06,SSW,210,3.0,8.0,65,0.00,,,0.00,meteohub,2013-10-01 17:56:00,
2013-10-01 11:01:00,62.8,50.9,30.06,SW,218,4.0,8.0,65,0.00,,,0.00,meteohub,2013-10-01 18:01:00,
2013-10-01 11:06:00,62.4,50.5,30.05,SW,233,5.0,8.0,65,0.00,,,0.00,meteohub,2013-10-01 18:06:00,
2013-10-01 11:11:00,62.6,50.7,30.05,SSW,197,3.0,7.0,65,0.00,,,0.00,meteohub,2013-10-01 18:11:00,
2013-10-01 11:17:00,63.0,50.5,30.05,SSW,203,5.0,7.0,64,0.00,,,0.00,meteohub,2013-10-01 18:17:00,
2013-10-01 11:22:00,63.0,51.1,30.05,SSW,200,6.0,8.0,65,0.00,,,0.00,meteohub,2013-10-01 18:22:00,
2013-10-01 11:27:00,62.4,50.5,30.05,SSW,195,5.0,8.0,65,0.00,,,0.00,meteohub,2013-10-01 18:27:00,
2013-10-01 11:32:00,63.0,51.1,30.05,SSW,199,7.0,8.0,65,0.00,,,0.00,meteohub,2013-10-01 18:32:00,
2013-10-01 11:38:00,63.1,51.6,30.05,South,182,6.0,8.0,66,0.00,,,0.00,meteohub,2013-10-01 18:38:00,
2013-10-01 11:43:00,63.3,50.5,30.05,SW,235,8.0,9.0,63,0.00,,,0.00,meteohub,2013-10-01 18:43:00,
2013-10-01 11:48:00,63.1,50.7,30.05,SSW,198,7.0,10.0,64,0.00,,,0.00,meteohub,2013-10-01 18:48:00,
2013-10-01 11:54:00,63.1,50.7,30.05,WSW,237,6.0,10.0,64,0.00,,,0.00,meteohub,2013-10-01 18:54:00,
2013-10-01 11:59:00,63.1,50.4,30.05,SSW,204,2.0,10.0,63,0.00,,,0.00,meteohub,2013-10-01 18:59:00,
2013-10-01 12:04:00,63.7,50.0,30.05,SW,231,5.0,9.0,61,0.00,,,0.00,meteohub,2013-10-01 19:04:00,
2013-10-01 12:09:00,63.9,50.2,30.04,WSW,240,5.0,10.0,61,0.00,,,0.00,meteohub,2013-10-01 19:09:00,
2013-10-01 12:14:00,64.0,50.7,30.04,SSW,206,7.0,10.0,62,0.00,,,0.00,meteohub,2013-10-01 19:14:00,
2013-10-01 12:19:00,64.2,51.4,30.05,SSW,192,4.0,10.0,63,0.00,,,0.00,meteohub,2013-10-01 19:19:00,
2013-10-01 12:25:00,64.2,51.4,30.04,SSW,202,6.0,10.0,63,0.00,,,0.00,meteohub,2013-10-01 19:25:00,
2013-10-01 12:30:00,64.9,51.1,30.04,South,182,6.0,8.0,61,0.00,,,0.00,meteohub,2013-10-01 19:30:00,
2013-10-01 12:35:00,64.9,51.1,30.04,SSW,206,8.0,11.0,61,0.00,,,0.00,meteohub,2013-10-01 19:35:00,
2013-10-01 12:41:00,64.0,51.3,30.04,South,189,4.0,11.0,63,0.00,,,0.00,meteohub,2013-10-01 19:41:00,
2013-10-01 12:46:00,64.2,50.9,30.04,SW,220,5.0,11.0,62,0.00,,,0.00,meteohub,2013-10-01 19:46:00,
2013-10-01 12:51:00,65.1,51.3,30.04,SSW,203,3.0,10.0,61,0.00,,,0.00,meteohub,2013-10-01 19:51:00,
2013-10-01 12:56:00,64.9,51.6,30.04,SSW,195,7.0,11.0,62,0.00,,,0.00,meteohub,2013-10-01 19:56:00,
2013-10-01 13:02:00,65.1,51.8,30.04,SSW,198,7.0,11.0,62,0.00,,,0.00,meteohub,2013-10-01 20:02:00,
2013-10-01 13:07:00,64.8,51.4,30.04,South,189,7.0,10.0,62,0.00,,,0.00,meteohub,2013-10-01 20:07:00,
2013-10-01 13:12:00,65.1,51.8,30.04,South,191,7.0,10.0,62,0.00,,,0.00,meteohub,2013-10-01 20:12:00,
2013-10-01 13:17:00,64.9,51.6,30.03,South,185,2.0,10.0,62,0.00,,,0.00,meteohub,2013-10-01 20:17:00,
2013-10-01 13:23:00,65.7,51.8,30.03,South,171,7.0,9.0,61,0.00,,,0.00,meteohub,2013-10-01 20:23:00,
2013-10-01 13:28:00,66.0,52.2,30.03,SSW,197,5.0,9.0,61,0.00,,,0.00,meteohub,2013-10-01 20:28:00,
2013-10-01 13:33:00,65.8,51.1,30.03,SW,214,7.0,9.0,59,0.00,,,0.00,meteohub,2013-10-01 20:33:00,
2013-10-01 13:38:00,65.5,51.3,30.02,SW,231,8.0,10.0,60,0.00,,,0.00,meteohub,2013-10-01 20:38:00,
2013-10-01 13:44:00,66.0,51.3,30.03,SSW,201,7.0,10.0,59,0.00,,,0.00,meteohub,2013-10-01 20:44:00,
2013-10-01 13:49:00,65.5,51.6,30.02,SSW,199,6.0,10.0,61,0.00,,,0.00,meteohub,2013-10-01 20:49:00,
2013-10-01 13:55:00,65.5,51.6,30.02,SSW,208,6.0,11.0,61,0.00,,,0.00,meteohub,2013-10-01 20:55:00,
2013-10-01 14:00:00,64.9,50.7,30.02,SSW,208,7.0,11.0,60,0.00,,,0.00,meteohub,2013-10-01 21:00:00,
2013-10-01 14:05:00,65.3,51.1,30.01,SSW,198,6.0,12.0,60,0.00,,,0.00,meteohub,2013-10-01 21:05:00,
2013-10-01 14:11:00,66.0,50.9,30.01,SSW,210,9.0,12.0,58,0.00,,,0.00,meteohub,2013-10-01 21:11:00,
2013-10-01 14:16:00,66.0,51.3,30.01,South,188,8.0,12.0,59,0.00,,,0.00,meteohub,2013-10-01 21:16:00,
2013-10-01 14:21:00,66.2,50.9,30.01,SW,226,6.0,12.0,58,0.00,,,0.00,meteohub,2013-10-01 21:21:00,
2013-10-01 14:26:00,66.0,50.4,30.01,SSW,206,6.0,15.0,57,0.00,,,0.00,meteohub,2013-10-01 21:26:00,
2013-10-01 14:32:00,66.7,51.1,30.01,SSW,213,10.0,15.0,57,0.00,,,0.00,meteohub,2013-10-01 21:32:00,
2013-10-01 14:37:00,66.7,50.0,30.01,SSW,212,6.0,15.0,55,0.00,,,0.00,meteohub,2013-10-01 21:37:00,
2013-10-01 14:42:00,66.9,50.2,30.01,SSW,193,6.0,12.0,55,0.00,,,0.00,meteohub,2013-10-01 21:42:00,
2013-10-01 14:48:00,66.9,51.3,30.00,South,183,8.0,12.0,57,0.00,,,0.00,meteohub,2013-10-01 21:48:00,
2013-10-01 14:53:00,66.6,51.3,30.01,SSW,197,10.0,11.0,58,0.00,,,0.00,meteohub,2013-10-01 21:53:00,
2013-10-01 14:59:00,66.0,50.9,30.00,SSW,211,6.0,11.0,58,0.00,,,0.00,meteohub,2013-10-01 21:59:00,
2013-10-01 15:04:00,66.7,51.1,30.00,SSW,205,7.0,12.0,57,0.00,,,0.00,meteohub,2013-10-01 22:04:00,
2013-10-01 15:09:00,66.7,51.1,30.00,SSW,199,6.0,12.0,57,0.00,,,0.00,meteohub,2013-10-01 22:09:00,
2013-10-01 15:15:00,66.7,50.5,30.00,SSW,200,7.0,12.0,56,0.00,,,0.00,meteohub,2013-10-01 22:15:00,
2013-10-01 15:20:00,67.5,51.3,30.00,SSW,200,7.0,10.0,56,0.00,,,0.00,meteohub,2013-10-01 22:20:00,
2013-10-01 15:25:00,67.6,51.8,30.00,South,186,5.0,10.0,57,0.00,,,0.00,meteohub,2013-10-01 22:25:00,
2013-10-01 15:31:00,67.5,50.7,30.00,SSW,195,8.0,10.0,55,0.00,,,0.00,meteohub,2013-10-01 22:31:00,
2013-10-01 15:36:00,67.1,50.9,30.00,SSW,205,7.0,10.0,56,0.00,,,0.00,meteohub,2013-10-01 22:36:00,
2013-10-01 15:41:00,67.3,51.1,30.00,SSW,211,5.0,11.0,56,0.00,,,0.00,meteohub,2013-10-01 22:41:00,
2013-10-01 15:46:00,67.3,50.5,29.99,SSW,203,4.0,11.0,55,0.00,,,0.00,meteohub,2013-10-01 22:46:00,
2013-10-01 15:52:00,67.1,51.4,29.99,SSW,203,8.0,11.0,57,0.00,,,0.00,meteohub,2013-10-01 22:52:00,
2013-10-01 15:57:00,66.9,50.7,29.99,SSW,199,3.0,10.0,56,0.00,,,0.00,meteohub,2013-10-01 22:57:00,
2013-10-01 16:02:00,67.5,51.3,29.99,SSW,193,7.0,10.0,56,0.00,,,0.00,meteohub,2013-10-01 23:02:00,
2013-10-01 16:07:00,67.3,52.0,29.99,SSW,206,4.0,10.0,58,0.00,,,0.00,meteohub,2013-10-01 23:07:00,
2013-10-01 16:13:00,67.3,51.1,29.99,SSW,209,8.0,10.0,56,0.00,,,0.00,meteohub,2013-10-01 23:13:00,
2013-10-01 16:18:00,67.3,52.0,29.99,South,186,8.0,11.0,58,0.00,,,0.00,meteohub,2013-10-01 23:18:00,
2013-10-01 16:20:00,67.5,51.3,29.98,South,177,2.0,11.0,56,0.00,,,0.00,meteohub,2013-10-01 23:20:00,
2013-10-01 16:25:00,67.8,52.0,29.98,South,190,8.0,10.0,57,0.00,,,0.00,meteohub,2013-10-01 23:25:00,
2013-10-01 16:30:00,68.2,52.3,29.98,South,187,5.0,11.0,57,0.00,,,0.00,meteohub,2013-10-01 23:30:00,
2013-10-01 16:35:00,68.4,52.0,29.98,South,174,5.0,11.0,56,0.00,,,0.00,meteohub,2013-10-01 23:35:00,
2013-10-01 16:41:00,68.2,52.9,29.98,South,169,7.0,10.0,58,0.00,,,0.00,meteohub,2013-10-01 23:41:00,
2013-10-01 16:46:00,67.8,52.5,29.98,South,183,3.0,10.0,58,0.00,,,0.00,meteohub,2013-10-01 23:46:00,
2013-10-01 16:51:00,68.4,52.5,29.97,South,191,7.0,10.0,57,0.00,,,0.00,meteohub,2013-10-01 23:51:00,
2013-10-01 16:56:00,68.0,53.6,29.97,South,183,6.0,10.0,60,0.00,,,0.00,meteohub,2013-10-01 23:56:00,
2013-10-01 17:01:00,67.3,54.3,29.97,South,177,5.0,9.0,63,0.00,,,0.00,meteohub,2013-10-02 00:01:00,
2013-10-01 17:06:00,66.9,54.0,29.97,South,177,5.0,9.0,63,0.00,,,0.00,meteohub,2013-10-02 00:06:00,
2013-10-01 17:11:00,66.7,53.8,29.97,South,179,3.0,8.0,63,0.00,,,0.00,meteohub,2013-10-02 00:11:00,
2013-10-01 17:16:00,66.6,54.5,29.97,South,174,4.0,9.0,65,0.00,,,0.00,meteohub,2013-10-02 00:16:00,
2013-10-01 17:20:00,66.6,54.9,29.97,SSE,162,6.0,9.0,66,0.00,,,0.00,meteohub,2013-10-02 00:20:00,
2013-10-01 17:25:00,66.4,54.3,29.97,South,183,6.0,9.0,65,0.00,,,0.00,meteohub,2013-10-02 00:25:00,
2013-10-01 17:30:00,66.4,54.7,29.97,SSW,197,5.0,10.0,66,0.00,,,0.00,meteohub,2013-10-02 00:30:00,
2013-10-01 17:35:00,66.6,55.2,29.97,SSE,164,3.0,10.0,67,0.00,,,0.00,meteohub,2013-10-02 00:35:00,
2013-10-01 17:40:00,66.2,54.9,29.97,South,170,6.0,9.0,67,0.00,,,0.00,meteohub,2013-10-02 00:40:00,
2013-10-01 17:45:00,66.0,54.7,29.96,South,170,4.0,7.0,67,0.00,,,0.00,meteohub,2013-10-02 00:45:00,
2013-10-01 17:50:00,66.2,54.5,29.96,SSE,166,6.0,7.0,66,0.00,,,0.00,meteohub,2013-10-02 00:50:00,
2013-10-01 17:55:00,66.0,55.6,29.96,SE,146,5.0,7.0,69,0.00,,,0.00,meteohub,2013-10-02 00:55:00,
2013-10-01 18:00:00,65.5,55.8,29.96,SE,137,5.0,8.0,71,0.00,,,0.00,meteohub,2013-10-02 01:00:00,
2013-10-01 18:05:00,64.9,56.1,29.96,SSE,149,7.0,8.0,73,0.00,,,0.00,meteohub,2013-10-02 01:05:00,
2013-10-01 18:10:00,64.6,56.5,29.96,SSE,150,4.0,8.0,75,0.00,,,0.00,meteohub,2013-10-02 01:10:00,
2013-10-01 18:15:00,64.2,56.1,29.96,SSE,150,4.0,8.0,75,0.00,,,0.00,meteohub,2013-10-02 01:15:00,
2013-10-01 18:20:00,63.9,55.8,29.96,SSE,157,2.0,8.0,75,0.00,,,0.00,meteohub,2013-10-02 01:20:00,
2013-10-01 18:25:00,63.5,55.4,29.96,SSE,149,6.0,7.0,75,0.00,,,0.00,meteohub,2013-10-02 01:25:00,
2013-10-01 18:30:00,63.3,55.6,29.96,SSE,154,6.0,7.0,76,0.00,,,0.00,meteohub,2013-10-02 01:30:00,
2013-10-01 18:35:00,63.1,55.8,29.96,SSE,160,1.0,7.0,77,0.00,,,0.00,meteohub,2013-10-02 01:35:00,
2013-10-01 18:40:00,63.0,55.6,29.96,SSE,167,6.0,7.0,77,0.00,,,0.00,meteohub,2013-10-02 01:40:00,
2013-10-01 18:45:00,62.8,55.4,29.96,SSE,157,5.0,8.0,77,0.00,,,0.00,meteohub,2013-10-02 01:45:00,
2013-10-01 18:50:00,62.8,55.4,29.96,SSE,167,4.0,8.0,77,0.00,,,0.00,meteohub,2013-10-02 01:50:00,
2013-10-01 18:55:00,62.6,54.9,29.96,South,170,3.0,8.0,76,0.00,,,0.00,meteohub,2013-10-02 01:55:00,
2013-10-01 19:00:00,62.6,54.9,29.96,South,170,2.0,8.0,76,0.00,,,0.00,meteohub,2013-10-02 02:00:00,
2013-10-01 19:05:00,62.4,54.3,29.96,South,170,0.0,8.0,75,0.00,,,0.00,meteohub,2013-10-02 02:05:00,
2013-10-01 19:10:00,62.4,54.3,29.96,South,169,3.0,5.0,75,0.00,,,0.00,meteohub,2013-10-02 02:10:00,
2013-10-01 19:15:00,62.4,54.3,29.96,SSE,168,3.0,5.0,75,0.00,,,0.00,meteohub,2013-10-02 02:15:00,
2013-10-01 19:20:00,62.4,54.7,29.96,SSE,168,1.0,5.0,76,0.00,,,0.00,meteohub,2013-10-02 02:20:00,
2013-10-01 19:25:00,62.4,55.0,29.96,SSE,168,2.0,5.0,77,0.00,,,0.00,meteohub,2013-10-02 02:25:00,
2013-10-01 19:30:00,62.2,54.9,29.96,SSE,168,2.0,4.0,77,0.00,,,0.00,meteohub,2013-10-02 02:30:00,
2013-10-01 19:36:00,62.1,55.0,29.96,SSE,168,3.0,4.0,78,0.00,,,0.00,meteohub,2013-10-02 02:36:00,
2013-10-01 19:41:00,62.1,55.4,29.96,SSE,168,1.0,4.0,79,0.00,,,0.00,meteohub,2013-10-02 02:41:00,
2013-10-01 19:46:00,61.9,55.2,29.96,SSE,168,1.0,4.0,79,0.00,,,0.00,meteohub,2013-10-02 02:46:00,
2013-10-01 19:51:00,61.9,55.2,29.96,SSE,168,2.0,4.0,79,0.00,,,0.00,meteohub,2013-10-02 02:51:00,
2013-10-01 19:56:00,61.9,55.6,29.97,SSE,168,2.0,4.0,80,0.00,,,0.00,meteohub,2013-10-02 02:56:00,
2013-10-01 20:01:00,61.9,55.6,29.96,SSE,168,0.0,4.0,80,0.00,,,0.00,meteohub,2013-10-02 03:01:00,
2013-10-01 20:06:00,61.9,55.6,29.96,SSE,168,1.0,4.0,80,0.00,,,0.00,meteohub,2013-10-02 03:06:00,
2013-10-01 20:11:00,61.9,55.6,29.96,SSE,168,0.0,3.0,80,0.00,,,0.00,meteohub,2013-10-02 03:11:00,
2013-10-01 20:16:00,61.9,55.6,29.97,SSE,168,0.0,3.0,80,0.00,,,0.00,meteohub,2013-10-02 03:16:00,
2013-10-01 20:21:00,61.9,55.6,29.97,SSE,168,0.0,3.0,80,0.00,,,0.00,meteohub,2013-10-02 03:21:00,
2013-10-01 20:26:00,61.9,55.6,29.97,SSE,168,0.0,3.0,80,0.00,,,0.00,meteohub,2013-10-02 03:26:00,
2013-10-01 20:31:00,61.9,55.2,29.97,SSE,168,0.0,1.0,79,0.00,,,0.00,meteohub,2013-10-02 03:31:00,
2013-10-01 20:36:00,61.9,55.6,29.97,SSE,168,1.0,3.0,80,0.00,,,0.00,meteohub,2013-10-02 03:36:00,
2013-10-01 20:41:00,61.9,55.6,29.97,SSE,168,0.0,3.0,80,0.00,,,0.00,meteohub,2013-10-02 03:41:00,
2013-10-01 20:46:00,61.9,55.9,29.98,SSE,168,0.0,3.0,81,0.00,,,0.00,meteohub,2013-10-02 03:46:00,
2013-10-01 20:51:00,61.9,55.9,29.97,SSE,168,2.0,2.0,81,0.00,,,0.00,meteohub,2013-10-02 03:51:00,
2013-10-01 20:56:00,61.9,55.9,29.98,SSE,168,0.0,3.0,81,0.00,,,0.00,meteohub,2013-10-02 03:56:00,
2013-10-01 21:01:00,61.7,56.1,29.98,SSE,167,2.0,3.0,82,0.00,,,0.00,meteohub,2013-10-02 04:01:00,
2013-10-01 21:02:00,61.5,55.2,29.98,SSE,168,2.0,3.0,80,0.00,,,0.00,meteohub,2013-10-02 04:02:00,
2013-10-01 21:03:00,61.5,54.9,29.98,SSE,168,0.0,3.0,79,0.00,,,0.00,meteohub,2013-10-02 04:03:00,
2013-10-01 21:04:00,61.5,55.2,29.97,SSE,168,0.0,3.0,80,0.00,,,0.00,meteohub,2013-10-02 04:04:00,
2013-10-01 21:05:00,61.5,55.2,29.98,SSE,168,0.0,5.0,80,0.00,,,0.00,meteohub,2013-10-02 04:05:00,
2013-10-01 21:10:00,61.7,55.8,29.98,SSE,168,0.0,5.0,81,0.00,,,0.00,meteohub,2013-10-02 04:10:00,
2013-10-01 21:15:00,61.5,55.6,29.98,SSE,168,0.0,5.0,81,0.00,,,0.00,meteohub,2013-10-02 04:15:00,
2013-10-01 21:20:00,61.3,55.0,29.98,SSE,168,2.0,5.0,80,0.00,,,0.00,meteohub,2013-10-02 04:20:00,
2013-10-01 21:25:00,61.3,54.9,29.98,SSE,168,0.0,3.0,79,0.00,,,0.00,meteohub,2013-10-02 04:25:00,
2013-10-01 21:30:00,61.3,54.9,29.98,SSE,168,0.0,3.0,79,0.00,,,0.00,meteohub,2013-10-02 04:30:00,
2013-10-01 21:35:00,61.3,55.0,29.98,SSE,168,0.0,3.0,80,0.00,,,0.00,meteohub,2013-10-02 04:35:00,
2013-10-01 21:40:00,61.2,54.7,29.98,SSE,168,0.0,2.0,79,0.00,,,0.00,meteohub,2013-10-02 04:40:00,
2013-10-01 21:45:00,61.0,55.0,29.98,SSE,168,0.0,2.0,81,0.00,,,0.00,meteohub,2013-10-02 04:45:00,
2013-10-01 21:50:00,60.8,54.9,29.98,SSE,168,0.0,2.0,81,0.00,,,0.00,meteohub,2013-10-02 04:50:00,
2013-10-01 21:55:00,60.6,54.7,29.98,SSE,168,1.0,3.0,81,0.00,,,0.00,meteohub,2013-10-02 04:55:00,
2013-10-01 22:00:00,60.6,54.7,29.98,SSE,168,0.0,3.0,81,0.00,,,0.00,meteohub,2013-10-02 05:00:00,
2013-10-01 22:05:00,60.4,54.5,29.98,SSE,168,0.0,3.0,81,0.00,,,0.00,meteohub,2013-10-02 05:05:00,
2013-10-01 22:10:00,60.4,54.5,29.98,SSE,168,0.0,2.0,81,0.00,,,0.00,meteohub,2013-10-02 05:10:00,
2013-10-01 22:15:00,60.4,54.5,29.98,SSE,168,0.0,1.0,81,0.00,,,0.00,meteohub,2013-10-02 05:15:00,
2013-10-01 22:20:00,60.3,54.3,29.98,SSE,168,0.0,1.0,81,0.00,,,0.00,meteohub,2013-10-02 05:20:00,
2013-10-01 22:25:00,60.3,54.7,29.98,SSE,168,0.0,1.0,82,0.00,,,0.00,meteohub,2013-10-02 05:25:00,
2013-10-01 22:30:00,60.1,54.5,29.98,SSE,167,0.0,0.0,82,0.00,,,0.00,meteohub,2013-10-02 05:30:00,
2013-10-01 22:35:00,60.1,54.5,29.98,SSE,168,0.0,1.0,82,0.00,,,0.00,meteohub,2013-10-02 05:35:00,
2013-10-01 22:40:00,60.1,54.5,29.98,SSE,167,0.0,1.0,82,0.00,,,0.00,meteohub,2013-10-02 05:40:00,
2013-10-01 22:45:00,60.1,54.9,29.98,SSE,167,0.0,0.0,83,0.00,,,0.00,meteohub,2013-10-02 05:45:00,
2013-10-01 22:50:00,59.9,54.3,29.99,SSE,168,0.0,0.0,82,0.00,,,0.00,meteohub,2013-10-02 05:50:00,
2013-10-01 22:55:00,59.7,54.5,29.98,SSE,168,0.0,0.0,83,0.00,,,0.00,meteohub,2013-10-02 05:55:00,
2013-10-01 23:00:00,59.5,54.3,29.99,SSE,168,0.0,0.0,83,0.00,,,0.00,meteohub,2013-10-02 06:00:00,
2013-10-01 23:05:00,59.5,54.7,29.99,SSE,168,0.0,0.0,84,0.00,,,0.00,meteohub,2013-10-02 06:05:00,
2013-10-01 23:10:00,59.4,54.5,29.99,SSE,168,0.0,2.0,84,0.00,,,0.00,meteohub,2013-10-02 06:10:00,
2013-10-01 23:15:00,59.0,53.8,29.99,SSE,168,0.0,2.0,83,0.00,,,0.00,meteohub,2013-10-02 06:15:00,
2013-10-01 23:20:00,58.6,53.4,29.99,SSE,168,0.0,1.0,83,0.00,,,0.00,meteohub,2013-10-02 06:20:00,
2013-10-01 23:25:00,58.6,53.4,29.99,SSE,168,1.0,1.0,83,0.00,,,0.00,meteohub,2013-10-02 06:25:00,
2013-10-01 23:30:00,58.5,53.2,29.99,SSE,168,2.0,2.0,83,0.00,,,0.00,meteohub,2013-10-02 06:30:00,
2013-10-01 23:35:00,58.6,53.4,29.99,SSE,168,0.0,3.0,83,0.00,,,0.00,meteohub,2013-10-02 06:35:00,
2013-10-01 23:40:00,58.5,53.2,29.99,SSE,168,0.0,3.0,83,0.00,,,0.00,meteohub,2013-10-02 06:40:00,
2013-10-01 23:45:00,58.6,52.9,29.98,SSE,168,0.0,3.0,81,0.00,,,0.00,meteohub,2013-10-02 06:45:00,
2013-10-01 23:50:00,58.6,52.5,29.98,SSE,168,0.0,3.0,80,0.00,,,0.00,meteohub,2013-10-02 06:50:00,
2013-10-01 23:55:00,58.5,52.7,29.98,SSE,168,1.0,3.0,81,0.00,,,0.00,meteohub,2013-10-02 06:55:00,